Location: ?????????
(55.6553°N, 38.9075°E)
Time: 02:20:52
(UTC+00:00)

Cosmos 2333 Rocket - Pass Details

Date: 18 October 2019
Orbit: 838 x 864 km, 70.8° (Epoch: 19 November)

Event Time Altitude Azimuth Distance (km) Brightness Sun altitude
Exits shadow 01:13:16 24° 182° (S) 1,666 3.5 -24.0°
Maximum altitude 01:16:29 54° 115° (ESE) 1,022 2.8 -23.5°
Drops below altitude 10° 01:22:03 10° 40° (NE) 2,492 5.4 -22.8°
Sets 01:24:33 0° 36° (NE) 3,436 6.2 -22.5°
